FW4559 Weather Reports


time (UTC)temp
C
wind
direction
speed
KPH
gust
KPH
rain 1hr
cm
rain 24hr
cm
rain mn
cm
humidity
%
barometer
mb
20260509005522 12 141 4.8 11.3 0.00 0.00 0.00 69 1014.4
20260509005021 12 155 1.6 9.7 0.00 0.00 0.00 68 1014.2
20260509004520 12 174 3.2 11.3 0.00 0.00 0.00 67 1014.3
20260509004020 12 134 4.8 12.9 0.00 0.00 0.00 67 1014.0
20260509003520 12 162 6.4 12.9 0.00 0.00 0.00 66 1014.1
20260509003020 12 136 3.2 8.0 0.00 0.00 0.00 65 1014.2
20260509002519 12 236 3.2 8.0 0.00 0.00 0.00 64 1014.1
20260509002020 13 146 0.0 9.7 0.00 0.00 0.00 63 1014.0
20260509001525 13 169 4.8 9.7 0.00 0.00 0.00 62 1014.0
20260509001020 13 207 1.6 8.0 0.00 0.00 0.00 62 1014.0
20260509000520 13 177 1.6 14.5 0.00 0.00 0.00 61 1013.9
20260509000019 13 177 6.4 14.5 0.00 0.00 0.00 60 1013.9
20260508235519 13 172 3.2 14.5 0.00 0.00 0.00 59 1013.9
20260508235019 13 149 3.2 12.9 0.00 0.00 0.00 59 1013.7
20260508234518 13 146 3.2 14.5 0.00 0.00 0.00 58 1013.7
20260508234018 14 120 4.8 17.7 0.00 0.00 0.00 58 1013.9
20260508233519 14 193 6.4 17.7 0.00 0.00 0.00 57 1013.8
20260508233018 14 203 6.4 12.9 0.00 0.00 0.00 57 1013.8
20260508232517 14 173 1.6 19.3 0.00 0.00 0.00 57 1013.8
20260508232017 14 189 6.4 19.3 0.00 0.00 0.00 56 1013.8
20260508231517 14 115 6.4 12.9 0.00 0.00 0.00 55 1013.6
20260508231017 14 164 3.2 11.3 0.00 0.00 0.00 55 1013.9
20260508230517 15 189 4.8 17.7 0.00 0.00 0.00 54 1014.0
20260508230017 15 204 4.8 17.7 0.00 0.00 0.00 54 1014.0
20260508225516 15 136 4.8 17.7 0.00 0.00 0.00 53 1014.0
20260508225019 15 200 6.4 17.7 0.00 0.00 0.00 52 1014.0
20260508224515 15 159 3.2 14.5 0.00 0.00 0.00 53 1013.9
20260508224015 15 155 8.0 14.5 0.00 0.00 0.00 51 1014.0
20260508223514 15 119 3.2 12.9 0.00 0.00 0.00 52 1013.9
20260508223015 15 146 4.8 14.5 0.00 0.00 0.00 50 1013.8
20260508222514 15 155 6.4 12.9 0.00 0.00 0.00 50 1014.0
20260508222017 15 201 3.2 19.3 0.00 0.00 0.00 49 1013.9
20260508221515 16 141 3.2 11.3 0.00 0.00 0.00 48 1013.7
20260508221014 16 183 3.2 14.5 0.00 0.00 0.00 47 1013.8
20260508220514 15 158 6.4 14.5 0.00 0.00 0.00 46 1013.6
20260508220045 16 205 8.0 16.1 0.00 0.00 0.00 45 1013.5
20260508215513 16 148 6.4 16.1 0.00 0.00 0.00 43 1013.4
20260508215013 16 189 3.2 19.3 0.00 0.00 0.00 45 1013.5
20260508214514 16 207 6.4 19.3 0.00 0.00 0.00 43 1013.5
20260508214012 16 145 8.0 22.5 0.00 0.00 0.00 42 1013.5
20260508213512 16 84 4.8 22.5 0.00 0.00 0.00 42 1013.5
20260508213012 16 6 6.4 14.5 0.00 0.00 0.00 40 1013.5
20260508212512 16 206 4.8 16.1 0.00 0.00 0.00 40 1013.6
20260508212011 16 146 8.0 17.7 0.00 0.00 0.00 38 1013.7
20260508211511 16 151 6.4 12.9 0.00 0.00 0.00 37 1013.5
20260508211011 16 151 4.8 11.3 0.00 0.00 0.00 37 1013.4
20260508210511 16 146 3.2 16.1 0.00 0.00 0.00 38 1013.5
20260508210011 16 110 3.2 14.5 0.00 0.00 0.00 37 1013.5
20260508205512 16 181 6.4 19.3 0.00 0.00 0.00 36 1013.8
20260508205011 16 131 8.0 19.3 0.00 0.00 0.00 36 1013.9
20260508204510 16 167 3.2 16.1 0.00 0.00 0.00 37 1013.9
20260508204014 16 160 6.4 16.1 0.00 0.00 0.00 35 1013.9
20260508203508 16 156 4.8 17.7 0.00 0.00 0.00 35 1014.0
20260508203008 16 154 1.6 19.3 0.00 0.00 0.00 36 1014.3
20260508202508 16 149 3.2 14.5 0.00 0.00 0.00 36 1014.5
20260508202008 16 143 3.2 14.5 0.00 0.00 0.00 35 1014.5
20260508201507 16 153 6.4 22.5 0.00 0.00 0.00 34 1014.7
20260508201007 17 206 11.3 22.5 0.00 0.00 0.00 32 1014.7
20260508200507 17 186 9.7 17.7 0.00 0.00 0.00 33 1014.7
20260508200006 16 206 8.0 14.5 0.00 0.00 0.00 32 1014.7
20260508195506 16 184 4.8 16.1 0.00 0.00 0.00 33 1014.7
20260508195006 16 79 4.8 27.4 0.00 0.00 0.00 33 1014.8
20260508194506 16 129 11.3 27.4 0.00 0.00 0.00 33 1014.7
20260508194006 16 79 8.0 22.5 0.00 0.00 0.00 33 1014.7
20260508193505 16 131 8.0 12.9 0.00 0.00 0.00 34 1014.8
20260508193005 16 158 3.2 9.7 0.00 0.00 0.00 34 1014.8
20260508192505 17 127 6.4 11.3 0.00 0.00 0.00 32 1014.9
20260508192004 16 99 3.2 12.9 0.00 0.00 0.00 35 1014.9
20260508191506 16 137 4.8 17.7 0.00 0.00 0.00 33 1015.0
20260508191004 16 145 6.4 17.7 0.00 0.00 0.00 31 1015.2
20260508190504 16 143 6.4 14.5 0.00 0.00 0.00 31 1015.3
20260508190003 16 210 8.0 14.5 0.00 0.00 0.00 29 1015.4
20260508185501 16 207 8.0 24.1 0.00 0.00 0.00 28 1015.5
20260508185002 16 150 9.7 24.1 0.00 0.00 0.00 28 1015.5
20260508184600 16 271 6.4 17.7 0.00 0.00 0.00 31 1015.4
20260508184059 16 156 6.4 16.1 0.00 0.00 0.00 30 1015.5
20260508183559 16 70 4.8 19.3 0.00 0.00 0.00 32 1015.5
20260508183059 16 164 8.0 19.3 0.00 0.00 0.00 33 1015.5
20260508182558 16 172 4.8 11.3 0.00 0.00 0.00 33 1015.5
20260508182058 16 131 6.4 17.7 0.00 0.00 0.00 31 1015.6
20260508181609 16 197 8.0 17.7 0.00 0.00 0.00 32 1015.5
20260508181058 16 203 6.4 19.3 0.00 0.00 0.00 33 1015.6
20260508180558 16 190 8.0 19.3 0.00 0.00 0.00 32 1015.6
20260508180107 16 163 4.8 17.7 0.00 0.00 0.00 31 1015.7
20260508175558 16 174 6.4 17.7 0.00 0.00 0.00 32 1015.9
20260508175057 16 165 6.4 19.3 0.00 0.00 0.00 33 1015.9
20260508174614 15 163 3.2 12.9 0.00 0.00 0.00 33 1016.1
20260508174058 15 149 6.4 17.7 0.00 0.00 0.00 32 1016.3
20260508173557 16 155 3.2 14.5 0.00 0.00 0.00 33 1016.3
20260508173100 16 161 4.8 14.5 0.00 0.00 0.00 34 1016.3
20260508172555 15 204 6.4 14.5 0.00 0.00 0.00 33 1016.4
20260508172055 15 153 8.0 14.5 0.00 0.00 0.00 34 1016.3
20260508171555 15 148 3.2 14.5 0.00 0.00 0.00 33 1016.4
20260508171059 16 144 6.4 14.5 0.00 0.00 0.00 32 1016.5
20260508170555 16 178 3.2 11.3 0.00 0.00 0.00 32 1016.6
20260508170058 15 231 0.0 11.3 0.00 0.00 0.00 34 1016.7
20260508165553 16 134 4.8 16.1 0.00 0.00 0.00 33 1016.7
20260508165053 15 154 1.6 16.1 0.00 0.00 0.00 35 1016.7
20260508164554 15 209 6.4 16.1 0.00 0.00 0.00 33 1016.7
20260508164055 15 161 1.6 11.3 0.00 0.00 0.00 36 1016.7
20260508163553 15 180 8.0 16.1 0.00 0.00 0.00 34 1016.7
20260508163051 15 181 8.0 16.1 0.00 0.00 0.00 35 1016.8
20260508162551 15 217 1.6 12.9 0.00 0.00 0.00 36 1016.9
20260508162051 15 140 4.8 14.5 0.00 0.00 0.00 35 1017.1
20260508161550 15 117 6.4 16.1 0.00 0.00 0.00 34 1017.0
20260508161050 15 103 6.4 16.1 0.00 0.00 0.00 36 1017.1
20260508160553 15 131 1.6 12.9 0.00 0.00 0.00 39 1017.1
20260508160049 15 141 3.2 12.9 0.00 0.00 0.00 39 1017.2
20260508155549 15 134 4.8 14.5 0.00 0.00 0.00 39 1017.3
20260508155049 15 156 3.2 14.5 0.00 0.00 0.00 39 1017.3
20260508154549 15 176 1.6 12.9 0.00 0.00 0.00 38 1017.4
20260508154047 15 188 4.8 12.9 0.00 0.00 0.00 39 1017.4
20260508153546 15 200 1.6 9.7 0.00 0.00 0.00 40 1017.4
20260508153046 15 136 1.6 9.7 0.00 0.00 0.00 42 1017.4
20260508152549 15 218 3.2 9.7 0.00 0.00 0.00 39 1017.4
20260508152044 14 177 3.2 9.7 0.00 0.00 0.00 43 1017.5
20260508151545 14 162 3.2 8.0 0.00 0.00 0.00 40 1017.6
20260508151045 14 167 4.8 8.0 0.00 0.00 0.00 39 1017.6
20260508150543 14 155 1.6 6.4 0.00 0.00 0.00 41 1017.6
20260508150042 14 142 1.6 6.4 0.00 0.00 0.00 41 1017.5
20260508145541 13 118 1.6 6.4 0.00 0.00 0.00 41 1017.5
20260508145040 13 240 0.0 9.7 0.00 0.00 0.00 46 1017.5
20260508144539 13 131 3.2 9.7 0.00 0.00 0.00 43 1017.5
20260508144040 12 223 0.0 9.7 0.00 0.00 0.00 45 1017.6
20260508143539 13 228 0.0 8.0 0.00 0.00 0.00 43 1017.6
20260508143040 13 245 1.6 4.8 0.00 0.00 0.00 45 1017.6
20260508142538 12 153 1.6 8.0 0.00 0.00 0.00 45 1017.6
20260508142038 13 76 1.6 9.7 0.00 0.00 0.00 44 1017.5
20260508141546 13 151 0.0 9.7 0.00 0.00 0.00 45 1017.5
20260508141038 13 142 3.2 8.0 0.00 0.00 0.00 42 1017.6
20260508140538 13 11 0.0 8.0 0.00 0.00 0.00 42 1017.5
20260508140039 13 264 0.0 8.0 0.00 0.00 0.00 43 1017.5
20260508135536 13 162 0.0 4.8 0.00 0.00 0.00 44 1017.5
20260508135035 13 139 1.6 4.8 0.00 0.00 0.00 43 1017.5
20260508134539 13 144 0.0 4.8 0.00 0.00 0.00 43 1017.4
20260508134033 13 179 1.6 4.8 0.00 0.00 0.00 43 1017.4
20260508133536 13 153 0.0 6.4 0.00 0.00 0.00 46 1017.2
20260508133032 13 205 0.0 6.4 0.00 0.00 0.00 45 1017.2
20260508132537 12 141 0.0 6.4 0.00 0.00 0.00 45 1017.2
20260508132033 12 124 1.6 6.4 0.00 0.00 0.00 45 1017.2
20260508131530 12 165 0.0 3.2 0.00 0.00 0.00 46 1017.0
20260508131030 12 141 1.6 3.2 0.00 0.00 0.00 43 1017.1
20260508130528 12 133 0.0 3.2 0.00 0.00 0.00 42 1017.0
20260508130029 12 176 0.0 3.2 0.00 0.00 0.00 44 1017.0
20260508125529 12 127 0.0 3.2 0.00 0.00 0.00 43 1016.9
20260508125027 12 149 0.0 1.6 0.00 0.00 0.00 45 1017.1
20260508124525 12 149 0.0 0.0 0.00 0.00 0.00 48 1016.8
20260508124024 12 149 0.0 0.0 0.00 0.00 0.00 51 1016.8
20260508123524 11 149 0.0 0.0 0.00 0.00 0.00 56 1016.8
20260508123022 10 149 0.0 0.0 0.00 0.00 0.00 58 1016.8
20260508122520 10 149 0.0 1.6 0.00 0.00 0.00 61 1016.8
20260508122018 8 149 0.0 1.6 0.00 0.00 0.00 63 1016.8
20260508121526 8 149 0.0 1.6 0.00 0.00 0.00 65 1016.7
20260508121018 7 161 0.0 1.6 0.00 0.00 0.00 68 1016.6
20260508120517 6 243 0.0 1.6 0.00 0.00 0.00 69 1016.5
20260508120017 6 144 0.0 1.6 0.00 0.00 0.00 73 1016.5
20260508115518 6 144 0.0 1.6 0.00 0.00 0.00 71 1016.4
20260508115015 5 124 0.0 1.6 0.00 0.00 0.00 75 1016.2
20260508114515 4 124 0.0 1.6 0.00 0.00 0.00 77 1016.1
20260508114018 3 110 0.0 1.6 0.00 0.00 0.00 79 1016.0
20260508113514 3 129 0.0 1.6 0.00 0.00 0.00 79 1016.0
20260508113016 3 131 0.0 3.2 0.00 0.00 0.00 79 1016.0
20260508112515 3 133 0.0 3.2 0.00 0.00 0.00 80 1015.8
20260508112011 3 113 0.0 1.6 0.00 0.00 0.00 81 1015.7
20260508111510 3 113 0.0 1.6 0.00 0.00 0.00 80 1015.7
20260508111009 3 142 0.0 1.6 0.00 0.00 0.00 78 1015.6
20260508110508 3 142 0.0 1.6 0.00 0.00 0.00 77 1015.5
20260508110014 3 142 0.0 3.2 0.00 0.00 0.00 77 1015.6
20260508105506 4 141 0.0 3.2 0.00 0.08 0.00 75 1015.5
20260508105005 5 126 0.0 1.6 0.00 0.08 0.00 70 1015.3
20260508104504 6 360 0.0 6.4 0.00 0.08 0.00 66 1015.1
20260508104003 6 360 3.2 8.0 0.00 0.08 0.00 64 1014.9
20260508103502 6 330 3.2 6.4 0.00 0.08 0.00 64 1014.7
20260508103001 6 344 1.6 6.4 0.00 0.08 0.00 65 1014.6
20260508102502 6 2 1.6 4.8 0.00 0.08 0.00 67 1014.6
20260508102001 5 96 0.0 1.6 0.00 0.08 0.00 68 1014.6
20260508101601 5 96 0.0 3.2 0.00 0.08 0.00 70 1014.5
20260508101100 5 96 1.6 4.8 0.00 0.08 0.00 70 1014.4
20260508100603 5 101 1.6 4.8 0.00 0.08 0.00 70 1014.4
20260508100059 5 120 1.6 3.2 0.00 0.08 0.00 69 1014.2
20260508095556 6 140 0.0 6.4 0.00 0.08 0.00 67 1014.2
20260508095055 6 26 0.0 9.7 0.00 0.08 0.00 66 1014.1
20260508094611 6 14 1.6 12.9 0.00 0.08 0.00 66 1014.0
20260508094053 6 321 6.4 12.9 0.00 0.08 0.00 66 1014.0
20260508093552 6 312 3.2 12.9 0.00 0.08 0.00 66 1014.0
20260508093052 6 346 6.4 20.9 0.00 0.08 0.00 65 1013.9
20260508092552 6 23 6.4 20.9 0.00 0.08 0.00 65 1013.8
20260508092052 6 334 8.0 17.7 0.00 0.08 0.00 65 1013.8
20260508091550 6 15 8.0 17.7 0.00 0.08 0.00 66 1013.8
20260508091051 6 8 8.0 17.7 0.00 0.08 0.00 66 1013.8
20260508090549 6 340 9.7 17.7 0.00 0.08 0.00 65 1013.7
20260508090052 6 335 8.0 17.7 0.00 0.08 0.00 66 1013.7
20260508085548 6 8 8.0 14.5 0.00 0.08 0.00 66 1013.9
20260508085047 6 330 6.4 14.5 0.00 0.08 0.00 66 1013.9
20260508084649 6 24 4.8 11.3 0.00 0.08 0.00 67 1013.8
20260508084047 6 323 3.2 9.7 0.00 0.08 0.00 67 1013.9
20260508083547 6 13 3.2 6.4 0.00 0.08 0.00 68 1013.8
20260508083044 6 345 1.6 3.2 0.00 0.08 0.00 68 1013.8
20260508082544 6 335 0.0 8.0 0.00 0.08 0.00 68 1013.8
20260508082045 6 352 0.0 8.0 0.00 0.08 0.00 68 1013.7
20260508081600 6 335 0.0 8.0 0.00 0.08 0.00 68 1013.7
20260508081043 6 348 1.6 9.7 0.00 0.08 0.00 68 1013.6
20260508080542 6 4 3.2 9.7 0.00 0.08 0.00 68 1013.6
20260508080042 6 30 1.6 8.0 0.00 0.08 0.00 70 1013.5
20260508075545 6 14 1.6 9.7 0.00 0.13 0.00 70 1013.5
20260508075046 6 37 1.6 6.4 0.00 0.13 0.00 70 1013.6
20260508074540 6 321 0.0 11.3 0.00 0.13 0.00 71 1013.5
20260508074039 6 101 1.6 11.3 0.00 0.13 0.00 70 1013.4
20260508073540 7 325 1.6 14.5 0.00 0.13 0.00 71 1013.5
20260508073041 7 343 3.2 16.1 0.00 0.13 0.00 71 1013.4
20260508072537 7 332 4.8 17.7 0.00 0.13 0.00 71 1013.3
20260508072037 7 283 6.4 20.9 0.00 0.13 0.00 71 1013.2
20260508071544 7 338 3.2 20.9 0.00 0.13 0.00 71 1013.3
20260508071035 7 52 4.8 22.5 0.00 0.13 0.00 71 1013.3
20260508070535 7 15 11.3 24.1 0.00 0.13 0.00 71 1013.2
20260508070035 7 19 11.3 24.1 0.00 0.13 0.00 71 1013.2
20260508065534 7 340 4.8 17.7 0.00 0.13 0.00 72 1013.3
20260508065133 7 278 8.0 17.7 0.00 0.13 0.00 73 1013.1
20260508064532 7 323 3.2 11.3 0.00 0.13 0.00 73 1013.1
20260508064031 7 349 1.6 14.5 0.00 0.13 0.00 73 1013.1
20260508063530 7 347 6.4 24.1 0.00 0.13 0.00 73 1013.0
20260508063044 7 33 3.2 24.1 0.00 0.13 0.00 73 1012.9
20260508062530 7 322 4.8 19.3 0.00 0.13 0.00 74 1012.8
20260508062029 7 315 6.4 24.1 0.00 0.13 0.00 75 1012.9
20260508061529 7 324 6.4 25.7 0.00 0.13 0.00 75 1012.8
20260508061028 7 296 6.4 20.9 0.00 0.13 0.00 76 1012.9
20260508060527 7 352 11.3 24.1 0.00 0.13 0.00 76 1012.9
20260508060034 7 348 11.3 24.1 0.00 0.13 0.00 77 1012.9
20260508055529 7 290 11.3 25.7 0.00 0.13 0.00 77 1012.9
20260508055026 7 338 12.9 27.4 0.00 0.13 0.00 78 1012.9
20260508054525 7 357 14.5 27.4 0.00 0.13 0.00 78 1012.9
20260508054023 7 339 11.3 29.0 0.00 0.13 0.00 78 1012.8
20260508053523 7 318 12.9 29.0 0.00 0.13 0.00 78 1012.7
20260508053024 7 319 12.9 25.7 0.00 0.13 0.00 78 1012.8
20260508052524 7 13 9.7 22.5 0.00 0.13 0.00 78 1012.7
20260508052021 8 326 8.0 24.1 0.00 0.13 0.00 78 1012.6
20260508051522 8 89 6.4 19.3 0.00 0.13 0.00 78 1012.5
20260508051020 8 77 6.4 19.3 0.00 0.13 0.00 78 1012.5
20260508050518 8 298 3.2 12.9 0.00 0.13 0.00 78 1012.4
20260508050019 8 58 3.2 17.7 0.00 0.13 0.00 78 1012.4
20260508045520 8 18 4.8 22.5 0.00 0.13 0.00 78 1012.2
20260508045018 8 12 8.0 25.7 0.00 0.13 0.00 79 1012.1
20260508044521 8 1 8.0 25.7 0.00 0.13 0.00 78 1012.2
20260508044016 8 335 11.3 25.7 0.00 0.13 0.00 77 1012.3
20260508043516 8 11 14.5 27.4 0.00 0.13 0.00 77 1012.4
20260508043019 8 329 12.9 27.4 0.00 0.13 0.00 77 1012.4
20260508042518 8 336 12.9 30.6 0.00 0.13 0.00 77 1012.4
20260508042013 8 335 19.3 30.6 0.00 0.13 0.00 76 1012.4
20260508041512 8 348 14.5 30.6 0.00 0.13 0.00 78 1012.4
20260508041012 8 292 11.3 32.2 0.00 0.13 0.00 78 1012.3
20260508040513 8 342 14.5 32.2 0.00 0.13 0.00 78 1012.2
20260508040009 8 16 12.9 24.1 0.00 0.13 0.00 79 1012.2
20260508035510 8 347 9.7 25.7 0.00 0.13 0.13 80 1012.4
20260508035009 8 341 11.3 22.5 0.00 0.13 0.13 79 1012.5
20260508034509 8 304 8.0 24.1 0.00 0.13 0.13 79 1012.6
20260508034008 8 322 11.3 24.1 0.00 0.13 0.13 79 1012.5
20260508033507 8 335 14.5 24.1 0.00 0.13 0.13 79 1012.5
20260508033007 8 5 6.4 24.1 0.00 0.13 0.13 79 1012.6
20260508032510 8 349 9.7 24.1 0.00 0.13 0.13 80 1012.6
20260508032006 8 328 8.0 19.3 0.00 0.13 0.13 80 1012.4
20260508031506 8 328 6.4 19.3 0.00 0.13 0.13 80 1012.4
20260508031006 8 316 6.4 19.3 0.00 0.13 0.13 80 1012.4
20260508030505 8 345 11.3 19.3 0.00 0.13 0.13 80 1012.2
20260508030006 8 316 4.8 20.9 0.00 0.13 0.13 80 1012.2
20260508025502 8 288 6.4 19.3 0.00 0.18 0.13 81 1012.1
20260508025001 8 264 4.8 19.3 0.00 0.18 0.13 81 1012.0
20260508024501 8 302 6.4 20.9 0.00 0.18 0.13 81 1012.1
20260508024001 8 345 4.8 20.9 0.00 0.18 0.13 81 1012.0
20260508023601 8 332 9.7 19.3 0.00 0.18 0.13 81 1012.1
20260508023100 8 8 3.2 12.9 0.00 0.18 0.13 81 1012.1
20260508022559 8 330 4.8 14.5 0.00 0.18 0.13 81 1012.0
20260508022201 8 322 3.2 14.5 0.00 0.18 0.13 81 1012.2
20260508021559 8 13 4.8 12.9 0.00 0.18 0.13 81 1012.0
20260508021058 8 311 3.2 12.9 0.00 0.18 0.13 80 1011.8
20260508020559 8 338 6.4 22.5 0.00 0.18 0.13 80 1011.7
20260508020105 8 229 3.2 14.5 0.00 0.18 0.13 80 1011.5
20260508015557 8 322 3.2 16.1 0.00 0.18 0.13 80 1011.4
20260508015057 8 336 6.4 30.6 0.00 0.18 0.13 79 1011.3
20260508014558 8 310 11.3 30.6 0.00 0.18 0.13 79 1011.2
20260508014056 8 4 9.7 24.1 0.00 0.18 0.13 79 1010.9
20260508013556 8 293 11.3 24.1 0.00 0.18 0.13 79 1010.9
20260508013053 8 337 9.7 24.1 0.00 0.18 0.13 79 1010.8
20260508012555 8 318 9.7 19.3 0.00 0.18 0.13 79 1010.8
20260508012051 8 352 6.4 20.9 0.00 0.18 0.13 78 1010.7
20260508011551 8 311 6.4 20.9 0.00 0.18 0.13 78 1010.8
20260508011053 8 338 8.0 17.7 0.00 0.18 0.13 78 1010.8
20260508010549 8 347 4.8 14.5 0.00 0.18 0.13 78 1010.6
20260508010050 8 304 3.2 17.7 0.00 0.18 0.13 77 1010.6